Year,Month,Day,Hour,Minute,Value (Times are PST for temperature in C)
2013,04,16,00,00,4.80
2013,04,16,00,01,4.80
2013,04,16,00,02,4.70
2013,04,16,00,03,4.70
2013,04,16,00,04,4.70
2013,04,16,00,05,4.70
2013,04,16,00,06,4.60
2013,04,16,00,07,4.60
2013,04,16,00,08,4.60
2013,04,16,00,09,4.60
2013,04,16,00,10,4.60
2013,04,16,00,11,4.60
2013,04,16,00,12,4.60
2013,04,16,00,13,4.60
2013,04,16,00,14,4.60
2013,04,16,00,15,4.60
2013,04,16,00,16,4.60
2013,04,16,00,17,4.60
2013,04,16,00,18,4.60
2013,04,16,00,19,4.60
2013,04,16,00,20,4.50
2013,04,16,00,21,4.50
2013,04,16,00,22,4.50
2013,04,16,00,23,4.40
2013,04,16,00,24,4.40
2013,04,16,00,25,4.40
2013,04,16,00,26,4.40
2013,04,16,00,27,4.30
2013,04,16,00,28,4.30
2013,04,16,00,29,4.30
2013,04,16,00,30,4.30
2013,04,16,00,31,4.30
2013,04,16,00,32,4.30
2013,04,16,00,33,4.30
2013,04,16,00,34,4.20
2013,04,16,00,35,4.20
2013,04,16,00,36,4.20
2013,04,16,00,37,4.20
2013,04,16,00,38,4.20
2013,04,16,00,39,4.20
2013,04,16,00,40,4.20
2013,04,16,00,41,4.20
2013,04,16,00,42,4.20
2013,04,16,00,43,4.20
2013,04,16,00,44,4.20
2013,04,16,00,45,4.20
2013,04,16,00,46,4.20
2013,04,16,00,47,4.20
2013,04,16,00,48,4.20
2013,04,16,00,49,4.20
2013,04,16,00,50,4.20
2013,04,16,00,51,4.20
2013,04,16,00,52,4.10
2013,04,16,00,53,4.10
2013,04,16,00,54,4.10
2013,04,16,00,55,4.10
2013,04,16,00,56,4.10
2013,04,16,00,57,4.10
2013,04,16,00,58,4.10
2013,04,16,00,59,4.10
2013,04,16,01,00,4.10
2013,04,16,01,01,4.10
2013,04,16,01,02,4.10
2013,04,16,01,03,4.10
2013,04,16,01,04,4.10
2013,04,16,01,05,4.10
2013,04,16,01,06,4.10
2013,04,16,01,07,4.10
2013,04,16,01,08,4.10
2013,04,16,01,09,4.10
2013,04,16,01,10,4.10
2013,04,16,01,11,4.10
2013,04,16,01,12,4.10
2013,04,16,01,13,4.10
2013,04,16,01,14,4.10
2013,04,16,01,15,4.10
2013,04,16,01,16,4.10
2013,04,16,01,17,4.10
2013,04,16,01,18,4.20
2013,04,16,01,19,4.20
2013,04,16,01,20,4.20
2013,04,16,01,21,4.20
2013,04,16,01,22,4.20
2013,04,16,01,23,4.20
2013,04,16,01,24,4.20
2013,04,16,01,25,4.10
2013,04,16,01,26,4.10
2013,04,16,01,27,4.10
2013,04,16,01,28,4.10
2013,04,16,01,29,4.00
2013,04,16,01,30,4.00
2013,04,16,01,31,4.00
2013,04,16,01,32,3.90
2013,04,16,01,33,3.90
2013,04,16,01,34,3.90
2013,04,16,01,35,3.90
2013,04,16,01,36,3.90
2013,04,16,01,37,3.90
2013,04,16,01,38,3.90
2013,04,16,01,39,3.90
2013,04,16,01,40,3.90
2013,04,16,01,41,3.90
2013,04,16,01,42,3.90
2013,04,16,01,43,3.80
2013,04,16,01,44,3.80
2013,04,16,01,45,3.80
2013,04,16,01,46,3.80
2013,04,16,01,47,3.80
2013,04,16,01,48,3.80
2013,04,16,01,49,3.80
2013,04,16,01,50,3.80
2013,04,16,01,51,3.80
2013,04,16,01,52,3.80
2013,04,16,01,53,3.80
2013,04,16,01,54,3.80
2013,04,16,01,55,3.80
2013,04,16,01,56,3.80
2013,04,16,01,57,3.80
2013,04,16,01,58,3.80
2013,04,16,01,59,3.80
2013,04,16,02,00,3.80
2013,04,16,02,01,3.80
2013,04,16,02,02,3.80
2013,04,16,02,03,3.80
2013,04,16,02,04,3.80
2013,04,16,02,05,3.80
2013,04,16,02,06,3.80
2013,04,16,02,07,3.80
2013,04,16,02,08,3.80
2013,04,16,02,09,3.70
2013,04,16,02,10,3.70
2013,04,16,02,11,3.70
2013,04,16,02,12,3.70
2013,04,16,02,13,3.70
2013,04,16,02,14,3.70
2013,04,16,02,15,3.70
2013,04,16,02,16,3.70
2013,04,16,02,17,3.70
2013,04,16,02,18,3.70
2013,04,16,02,19,3.70
2013,04,16,02,20,3.70
2013,04,16,02,21,3.70
2013,04,16,02,22,3.70
2013,04,16,02,23,3.60
2013,04,16,02,24,3.60
2013,04,16,02,25,3.60
2013,04,16,02,26,3.60
2013,04,16,02,27,3.60
2013,04,16,02,28,3.60
2013,04,16,02,29,3.60
2013,04,16,02,30,3.60
2013,04,16,02,31,3.60
2013,04,16,02,32,3.60
2013,04,16,02,33,3.60
2013,04,16,02,34,3.60
2013,04,16,02,35,3.50
2013,04,16,02,36,3.50
2013,04,16,02,37,3.50
2013,04,16,02,38,3.50
2013,04,16,02,39,3.50
2013,04,16,02,40,3.50
2013,04,16,02,41,3.50
2013,04,16,02,42,3.50
2013,04,16,02,43,3.40
2013,04,16,02,44,3.40
2013,04,16,02,45,3.40
2013,04,16,02,46,3.40
2013,04,16,02,47,3.40
2013,04,16,02,48,3.40
2013,04,16,02,49,3.30
2013,04,16,02,50,3.30
2013,04,16,02,51,3.30
2013,04,16,02,52,3.30
2013,04,16,02,53,3.30
2013,04,16,02,54,3.30
2013,04,16,02,55,3.30
2013,04,16,02,56,3.30
2013,04,16,02,57,3.30
2013,04,16,02,58,3.30
2013,04,16,02,59,3.30
2013,04,16,03,00,3.30
2013,04,16,03,01,3.30
2013,04,16,03,02,3.30
2013,04,16,03,03,3.30
2013,04,16,03,04,3.30
2013,04,16,03,05,3.40
2013,04,16,03,06,3.40
2013,04,16,03,07,3.40
2013,04,16,03,08,3.40
2013,04,16,03,09,3.40
2013,04,16,03,10,3.40
2013,04,16,03,11,3.30
2013,04,16,03,12,3.30
2013,04,16,03,13,3.30
2013,04,16,03,14,3.30
2013,04,16,03,15,3.30
2013,04,16,03,16,3.30
2013,04,16,03,17,3.30
2013,04,16,03,18,3.20
2013,04,16,03,19,3.20
2013,04,16,03,20,3.20
2013,04,16,03,21,3.20
2013,04,16,03,22,3.10
2013,04,16,03,23,3.10
2013,04,16,03,24,3.10
2013,04,16,03,25,3.10
2013,04,16,03,26,3.10
2013,04,16,03,27,3.10
2013,04,16,03,28,3.10
2013,04,16,03,29,3.00
2013,04,16,03,30,2.90
2013,04,16,03,31,2.90
2013,04,16,03,32,2.90
2013,04,16,03,33,2.90
2013,04,16,03,34,2.90
2013,04,16,03,35,2.90
2013,04,16,03,36,2.90
2013,04,16,03,37,2.80
2013,04,16,03,38,2.80
2013,04,16,03,39,2.80
2013,04,16,03,40,2.80
2013,04,16,03,41,2.80
2013,04,16,03,42,2.80
2013,04,16,03,43,2.80
2013,04,16,03,44,2.70
2013,04,16,03,45,2.70
2013,04,16,03,46,2.70
2013,04,16,03,47,2.70
2013,04,16,03,48,2.70
2013,04,16,03,49,2.70
2013,04,16,03,50,2.70
2013,04,16,03,51,2.70
2013,04,16,03,52,2.70
2013,04,16,03,53,2.70
2013,04,16,03,54,2.60
2013,04,16,03,55,2.60
2013,04,16,03,56,2.60
2013,04,16,03,57,2.60
2013,04,16,03,58,2.60
2013,04,16,03,59,2.60
2013,04,16,04,00,2.60
2013,04,16,04,01,2.60
2013,04,16,04,02,2.60
2013,04,16,04,03,2.50
2013,04,16,04,04,2.50
2013,04,16,04,05,2.50
2013,04,16,04,06,2.50
2013,04,16,04,07,2.50
2013,04,16,04,08,2.50
2013,04,16,04,09,2.50
2013,04,16,04,10,2.50
2013,04,16,04,11,2.50
2013,04,16,04,12,2.50
2013,04,16,04,13,2.40
2013,04,16,04,14,2.40
2013,04,16,04,15,2.40
2013,04,16,04,16,2.30
2013,04,16,04,17,2.30
2013,04,16,04,18,2.30
2013,04,16,04,19,2.30
2013,04,16,04,20,2.20
2013,04,16,04,21,2.20
2013,04,16,04,22,2.20
2013,04,16,04,23,2.20
2013,04,16,04,24,2.20
2013,04,16,04,25,2.20
2013,04,16,04,26,2.20
2013,04,16,04,27,2.20
2013,04,16,04,28,2.20
2013,04,16,04,29,2.20
2013,04,16,04,30,2.20
2013,04,16,04,31,2.20
2013,04,16,04,32,2.20
2013,04,16,04,33,2.20
2013,04,16,04,34,2.20
2013,04,16,04,35,2.20
2013,04,16,04,36,2.20
2013,04,16,04,37,2.20
2013,04,16,04,38,2.20
2013,04,16,04,39,2.20
2013,04,16,04,40,2.20
2013,04,16,04,41,2.20
2013,04,16,04,42,2.20
2013,04,16,04,43,2.20
2013,04,16,04,44,2.10
2013,04,16,04,45,2.10
2013,04,16,04,46,2.10
2013,04,16,04,47,2.10
2013,04,16,04,48,2.00
2013,04,16,04,49,2.00
2013,04,16,04,50,2.00
2013,04,16,04,51,2.00
2013,04,16,04,52,1.90
2013,04,16,04,53,1.90
2013,04,16,04,54,1.90
2013,04,16,04,55,1.90
2013,04,16,04,56,1.90
2013,04,16,04,57,1.90
2013,04,16,04,58,1.90
2013,04,16,04,59,1.80
2013,04,16,05,00,1.80
2013,04,16,05,01,1.80
2013,04,16,05,02,1.80
2013,04,16,05,03,1.80
2013,04,16,05,04,1.80
2013,04,16,05,05,1.80
2013,04,16,05,06,1.80
2013,04,16,05,07,1.80
2013,04,16,05,08,1.80
2013,04,16,05,09,1.80
2013,04,16,05,10,1.80
2013,04,16,05,11,1.80
2013,04,16,05,12,1.80
2013,04,16,05,13,1.80
2013,04,16,05,14,1.80
2013,04,16,05,15,1.80
2013,04,16,05,16,1.80
2013,04,16,05,17,1.80
2013,04,16,05,18,1.80
2013,04,16,05,19,1.80
2013,04,16,05,20,1.80
2013,04,16,05,21,1.80
2013,04,16,05,22,1.80
2013,04,16,05,23,1.80
2013,04,16,05,24,1.80
2013,04,16,05,25,1.80
2013,04,16,05,26,1.80
2013,04,16,05,27,1.80
2013,04,16,05,28,1.80
2013,04,16,05,29,1.80
2013,04,16,05,30,1.80
2013,04,16,05,31,1.80
2013,04,16,05,32,1.80
2013,04,16,05,33,1.80
2013,04,16,05,34,1.80
2013,04,16,05,35,1.80
2013,04,16,05,36,1.80
2013,04,16,05,37,1.80
2013,04,16,05,38,1.80
2013,04,16,05,39,1.80
2013,04,16,05,40,1.80
2013,04,16,05,41,1.80
2013,04,16,05,42,1.80
2013,04,16,05,43,1.80
2013,04,16,05,44,1.80
2013,04,16,05,45,1.80
2013,04,16,05,46,1.80
2013,04,16,05,47,1.80
2013,04,16,05,48,1.80
2013,04,16,05,49,1.80
2013,04,16,05,50,1.90
2013,04,16,05,51,1.90
2013,04,16,05,52,1.90
2013,04,16,05,53,1.90
2013,04,16,05,54,1.80
2013,04,16,05,55,1.80
2013,04,16,05,56,1.80
2013,04,16,05,57,1.80
2013,04,16,05,58,1.80
2013,04,16,05,59,1.80
2013,04,16,06,00,1.80
2013,04,16,06,01,1.80
2013,04,16,06,02,1.80
2013,04,16,06,03,1.80
2013,04,16,06,04,1.80
2013,04,16,06,05,1.80
2013,04,16,06,06,1.80
2013,04,16,06,07,1.80
2013,04,16,06,08,1.80
2013,04,16,06,09,1.80
2013,04,16,06,10,1.80
2013,04,16,06,11,1.80
2013,04,16,06,12,1.80
2013,04,16,06,13,1.80
2013,04,16,06,14,1.80
2013,04,16,06,15,1.80
2013,04,16,06,16,1.80
2013,04,16,06,17,1.80
2013,04,16,06,18,1.80
2013,04,16,06,19,1.80
2013,04,16,06,20,1.70
2013,04,16,06,21,1.70
2013,04,16,06,22,1.70
2013,04,16,06,23,1.70
2013,04,16,06,24,1.70
2013,04,16,06,25,1.70
2013,04,16,06,26,1.70
2013,04,16,06,27,1.70
2013,04,16,06,28,1.70
2013,04,16,06,29,1.70
2013,04,16,06,30,1.70
2013,04,16,06,31,1.60
2013,04,16,06,32,1.60
2013,04,16,06,33,1.60
2013,04,16,06,34,1.60
2013,04,16,06,35,1.60
2013,04,16,06,36,1.60
2013,04,16,06,37,1.60
2013,04,16,06,38,1.60
2013,04,16,06,39,1.60
2013,04,16,06,40,1.60
2013,04,16,06,41,1.60
2013,04,16,06,42,1.60
2013,04,16,06,43,1.50
2013,04,16,06,44,1.50
2013,04,16,06,45,1.50
2013,04,16,06,46,1.50
2013,04,16,06,47,1.50
2013,04,16,06,48,1.50
2013,04,16,06,49,1.50
2013,04,16,06,50,1.50
2013,04,16,06,51,1.50
2013,04,16,06,52,1.50
2013,04,16,06,53,1.60
2013,04,16,06,54,1.60
2013,04,16,06,55,1.70
2013,04,16,06,56,1.70
2013,04,16,06,57,1.70
2013,04,16,06,58,1.80
2013,04,16,06,59,1.80
2013,04,16,07,00,1.80
2013,04,16,07,01,1.80
2013,04,16,07,02,1.80
2013,04,16,07,03,1.90
2013,04,16,07,04,1.90
2013,04,16,07,05,2.00
2013,04,16,07,06,2.00
2013,04,16,07,07,2.10
2013,04,16,07,08,2.10
2013,04,16,07,09,2.10
2013,04,16,07,10,2.20
2013,04,16,07,11,2.20
2013,04,16,07,12,2.20
2013,04,16,07,13,2.20
2013,04,16,07,14,2.20
2013,04,16,07,15,2.20
2013,04,16,07,16,2.20
2013,04,16,07,17,2.30
2013,04,16,07,18,2.30
2013,04,16,07,19,2.40
2013,04,16,07,20,2.40
2013,04,16,07,21,2.40
2013,04,16,07,22,2.50
2013,04,16,07,23,2.50
2013,04,16,07,24,2.60
2013,04,16,07,25,2.60
2013,04,16,07,26,2.70
2013,04,16,07,27,2.70
2013,04,16,07,28,2.80
2013,04,16,07,29,2.80
2013,04,16,07,30,2.90
2013,04,16,07,31,2.90
2013,04,16,07,32,2.90
2013,04,16,07,33,2.90
2013,04,16,07,34,3.10
2013,04,16,07,35,3.10
2013,04,16,07,36,3.10
2013,04,16,07,37,3.10
2013,04,16,07,38,3.20
2013,04,16,07,39,3.30
2013,04,16,07,40,3.30
2013,04,16,07,41,3.30
2013,04,16,07,42,3.40
2013,04,16,07,43,3.50
2013,04,16,07,44,3.50
2013,04,16,07,45,3.60
2013,04,16,07,46,3.70
2013,04,16,07,47,3.80
2013,04,16,07,48,3.80
2013,04,16,07,49,3.80
2013,04,16,07,50,3.90
2013,04,16,07,51,4.00
2013,04,16,07,52,4.00
2013,04,16,07,53,4.10
2013,04,16,07,54,4.20
2013,04,16,07,55,4.20
2013,04,16,07,56,4.20
2013,04,16,07,57,4.30
2013,04,16,07,58,4.30
2013,04,16,07,59,4.40
2013,04,16,08,00,4.40
2013,04,16,08,01,4.50
2013,04,16,08,02,4.50
2013,04,16,08,03,4.60
2013,04,16,08,04,4.60
2013,04,16,08,05,4.70
2013,04,16,08,06,4.70
2013,04,16,08,07,4.80
2013,04,16,08,08,4.90
2013,04,16,08,09,4.90
2013,04,16,08,10,5.00
2013,04,16,08,11,5.10
2013,04,16,08,12,5.10
2013,04,16,08,13,5.20
2013,04,16,08,14,5.30
2013,04,16,08,15,5.30
2013,04,16,08,16,5.40
2013,04,16,08,17,5.60
2013,04,16,08,18,5.70
2013,04,16,08,19,5.80
2013,04,16,08,20,5.90
2013,04,16,08,21,6.10
2013,04,16,08,22,6.20
2013,04,16,08,23,6.30
2013,04,16,08,24,6.30
2013,04,16,08,25,6.40
2013,04,16,08,26,6.40
2013,04,16,08,27,6.40
2013,04,16,08,28,6.50
2013,04,16,08,29,6.60
2013,04,16,08,30,6.60
2013,04,16,08,31,6.60
2013,04,16,08,32,6.70
2013,04,16,08,33,6.80
2013,04,16,08,34,6.80
2013,04,16,08,35,6.80
2013,04,16,08,36,6.90
2013,04,16,08,37,7.00
2013,04,16,08,38,7.00
2013,04,16,08,39,7.10
2013,04,16,08,40,7.20
2013,04,16,08,41,7.40
2013,04,16,08,42,7.50
2013,04,16,08,43,7.60
2013,04,16,08,44,7.70
2013,04,16,08,45,7.80
2013,04,16,08,46,7.80
2013,04,16,08,47,7.80
2013,04,16,08,48,7.80
2013,04,16,08,49,7.90
2013,04,16,08,50,8.00
2013,04,16,08,51,8.10
2013,04,16,08,52,8.20
2013,04,16,08,53,8.40
2013,04,16,08,54,8.50
2013,04,16,08,55,8.60
2013,04,16,08,56,8.70
2013,04,16,08,57,8.70
2013,04,16,08,58,8.80
2013,04,16,08,59,8.80
2013,04,16,09,00,8.90
2013,04,16,09,01,8.90
2013,04,16,09,02,8.90
2013,04,16,09,03,8.90
2013,04,16,09,04,9.00
2013,04,16,09,05,9.10
2013,04,16,09,06,9.10
2013,04,16,09,07,9.20
2013,04,16,09,08,9.20
2013,04,16,09,09,9.20
2013,04,16,09,10,9.20
2013,04,16,09,11,9.30
2013,04,16,09,12,9.30
2013,04,16,09,13,9.40
2013,04,16,09,14,9.40
2013,04,16,09,15,9.50
2013,04,16,09,16,9.50
2013,04,16,09,17,9.50
2013,04,16,09,18,9.60
2013,04,16,09,19,9.70
2013,04,16,09,20,9.70
2013,04,16,09,21,9.70
2013,04,16,09,22,9.80
2013,04,16,09,23,9.80
2013,04,16,09,24,9.80
2013,04,16,09,25,9.80
2013,04,16,09,26,9.80
2013,04,16,09,27,9.80
2013,04,16,09,28,9.80
2013,04,16,09,29,9.70
2013,04,16,09,30,9.70
2013,04,16,09,31,9.70
2013,04,16,09,32,9.80
2013,04,16,09,33,9.80
2013,04,16,09,34,9.80
2013,04,16,09,35,9.80
2013,04,16,09,36,9.80
2013,04,16,09,37,9.90
2013,04,16,09,38,9.90
2013,04,16,09,39,9.90
2013,04,16,09,40,9.90
2013,04,16,09,41,9.90
2013,04,16,09,42,9.90
2013,04,16,09,43,9.90
2013,04,16,09,44,9.90
2013,04,16,09,45,9.90
2013,04,16,09,46,9.90
2013,04,16,09,47,10.00
2013,04,16,09,48,10.10
2013,04,16,09,49,10.20
2013,04,16,09,50,10.40
2013,04,16,09,51,10.40
2013,04,16,09,52,10.40
2013,04,16,09,53,10.50
2013,04,16,09,54,10.60
2013,04,16,09,55,10.70
2013,04,16,09,56,10.70
2013,04,16,09,57,10.80
2013,04,16,09,58,10.90
2013,04,16,09,59,10.90
2013,04,16,10,00,11.00
2013,04,16,10,01,11.10
2013,04,16,10,02,11.10
2013,04,16,10,03,11.20
2013,04,16,10,04,11.30
2013,04,16,10,05,11.30
2013,04,16,10,06,11.30
2013,04,16,10,07,11.30
2013,04,16,10,08,11.30
2013,04,16,10,09,11.30
2013,04,16,10,10,11.20
2013,04,16,10,11,11.20
2013,04,16,10,12,11.10
2013,04,16,10,13,11.10
2013,04,16,10,14,11.00
2013,04,16,10,15,10.90
2013,04,16,10,16,10.90
2013,04,16,10,17,10.90
2013,04,16,10,18,11.10
2013,04,16,10,19,11.10
2013,04,16,10,20,11.10
2013,04,16,10,21,11.10
2013,04,16,10,22,11.10
2013,04,16,10,23,11.20
2013,04,16,10,24,11.20
2013,04,16,10,25,11.30
2013,04,16,10,26,11.50
2013,04,16,10,27,11.60
2013,04,16,10,28,11.60
2013,04,16,10,29,11.60
2013,04,16,10,30,11.60
2013,04,16,10,31,11.60
2013,04,16,10,32,11.60
2013,04,16,10,33,11.60
2013,04,16,10,34,11.70
2013,04,16,10,35,11.80
2013,04,16,10,36,11.90
2013,04,16,10,37,12.00
2013,04,16,10,38,12.10
2013,04,16,10,39,12.10
2013,04,16,10,40,12.10
2013,04,16,10,41,12.20
2013,04,16,10,42,12.30
2013,04,16,10,43,12.30
2013,04,16,10,44,12.30
2013,04,16,10,45,12.40
2013,04,16,10,46,12.40
2013,04,16,10,47,12.40
2013,04,16,10,48,12.40
2013,04,16,10,49,12.40
2013,04,16,10,50,12.30
2013,04,16,10,51,12.30
2013,04,16,10,52,12.30
2013,04,16,10,53,12.30
2013,04,16,10,54,12.20
2013,04,16,10,55,12.30
2013,04,16,10,56,12.30
2013,04,16,10,57,12.30
2013,04,16,10,58,12.30
2013,04,16,10,59,12.30
2013,04,16,11,00,12.40
2013,04,16,11,01,12.40
2013,04,16,11,02,12.40
2013,04,16,11,03,12.40
2013,04,16,11,04,12.30
2013,04,16,11,05,12.30
2013,04,16,11,06,12.30
2013,04,16,11,07,12.30
2013,04,16,11,08,12.20
2013,04,16,11,09,12.20
2013,04,16,11,10,12.10
2013,04,16,11,11,12.20
2013,04,16,11,12,12.20
2013,04,16,11,13,12.10
2013,04,16,11,14,12.10
2013,04,16,11,15,12.10
2013,04,16,11,16,12.20
2013,04,16,11,17,12.30
2013,04,16,11,18,12.40
2013,04,16,11,19,12.40
2013,04,16,11,20,12.50
2013,04,16,11,21,12.50
2013,04,16,11,22,12.40
2013,04,16,11,23,12.40
2013,04,16,11,24,12.30
2013,04,16,11,25,12.30
2013,04,16,11,26,12.30
2013,04,16,11,27,12.40
2013,04,16,11,28,12.50
2013,04,16,11,29,12.50
2013,04,16,11,30,12.60
2013,04,16,11,31,12.70
2013,04,16,11,32,12.80
2013,04,16,11,33,13.00
2013,04,16,11,34,13.00
2013,04,16,11,35,13.20
2013,04,16,11,36,13.10
2013,04,16,11,37,13.10
2013,04,16,11,38,13.00
2013,04,16,11,39,12.80
2013,04,16,11,40,12.70
2013,04,16,11,41,12.60
2013,04,16,11,42,12.60
2013,04,16,11,43,12.60
2013,04,16,11,44,12.40
2013,04,16,11,45,12.20
2013,04,16,11,46,12.10
2013,04,16,11,47,11.90
2013,04,16,11,48,11.80
2013,04,16,11,49,11.70
2013,04,16,11,50,11.70
2013,04,16,11,51,11.80
2013,04,16,11,52,11.70
2013,04,16,11,53,11.60
2013,04,16,11,54,11.60
2013,04,16,11,55,11.60
2013,04,16,11,56,11.60
2013,04,16,11,57,11.70
2013,04,16,11,58,11.70
2013,04,16,11,59,11.70
2013,04,16,12,00,11.70
2013,04,16,12,01,11.60
2013,04,16,12,02,11.60
2013,04,16,12,03,11.70
2013,04,16,12,04,11.80
2013,04,16,12,05,11.70
2013,04,16,12,06,11.80
2013,04,16,12,07,11.70
2013,04,16,12,08,11.60
2013,04,16,12,09,11.60
2013,04,16,12,10,11.70
2013,04,16,12,11,11.70
2013,04,16,12,12,11.60
2013,04,16,12,13,11.70
2013,04,16,12,14,11.70
2013,04,16,12,15,11.80
2013,04,16,12,16,11.80
2013,04,16,12,17,11.80
2013,04,16,12,18,11.70
2013,04,16,12,19,11.60
2013,04,16,12,20,11.60
2013,04,16,12,21,11.70
2013,04,16,12,22,11.80
2013,04,16,12,23,11.80
2013,04,16,12,24,11.90
2013,04,16,12,25,11.90
2013,04,16,12,26,11.90
2013,04,16,12,27,11.90
2013,04,16,12,28,12.00
2013,04,16,12,29,12.00
2013,04,16,12,30,12.00
2013,04,16,12,31,12.00
2013,04,16,12,32,12.10
2013,04,16,12,33,12.30
2013,04,16,12,34,12.40
2013,04,16,12,35,12.60
2013,04,16,12,36,12.70
2013,04,16,12,37,12.70
2013,04,16,12,38,12.60
2013,04,16,12,39,12.50
2013,04,16,12,40,12.40
2013,04,16,12,41,12.40
2013,04,16,12,42,12.40
2013,04,16,12,43,12.40
2013,04,16,12,44,12.50
2013,04,16,12,45,12.40
2013,04,16,12,46,12.30
2013,04,16,12,47,12.40
2013,04,16,12,48,12.50
2013,04,16,12,49,12.40
2013,04,16,12,50,12.40
2013,04,16,12,51,12.40
2013,04,16,12,52,12.40
2013,04,16,12,53,12.30
2013,04,16,12,54,12.30
2013,04,16,12,55,12.30
2013,04,16,12,56,12.30
2013,04,16,12,57,12.30
2013,04,16,12,58,12.20
2013,04,16,12,59,12.20
2013,04,16,13,00,12.20
2013,04,16,13,01,12.10
2013,04,16,13,02,12.10
2013,04,16,13,03,12.10
2013,04,16,13,04,12.00
2013,04,16,13,05,12.00
2013,04,16,13,06,11.90
2013,04,16,13,07,12.00
2013,04,16,13,08,12.10
2013,04,16,13,09,12.10
2013,04,16,13,10,12.20
2013,04,16,13,11,12.20
2013,04,16,13,12,12.10
2013,04,16,13,13,12.10
2013,04,16,13,14,12.10
2013,04,16,13,15,12.10
2013,04,16,13,16,12.20
2013,04,16,13,17,12.20
2013,04,16,13,18,12.10
2013,04,16,13,19,12.20
2013,04,16,13,20,12.20
2013,04,16,13,21,12.20
2013,04,16,13,22,12.20
2013,04,16,13,23,12.30
2013,04,16,13,24,12.30
2013,04,16,13,25,12.40
2013,04,16,13,26,12.50
2013,04,16,13,27,12.50
2013,04,16,13,28,12.50
2013,04,16,13,29,12.60
2013,04,16,13,30,12.60
2013,04,16,13,31,12.70
2013,04,16,13,32,12.60
2013,04,16,13,33,12.50
2013,04,16,13,34,12.30
2013,04,16,13,35,12.20
2013,04,16,13,36,12.30
2013,04,16,13,37,12.20
2013,04,16,13,38,12.30
2013,04,16,13,39,12.40
2013,04,16,13,40,12.60
2013,04,16,13,41,12.70
2013,04,16,13,42,12.80
2013,04,16,13,43,12.80
2013,04,16,13,44,12.80
2013,04,16,13,45,12.80
2013,04,16,13,46,12.80
2013,04,16,13,47,12.80
2013,04,16,13,48,12.90
2013,04,16,13,49,12.90
2013,04,16,13,50,13.00
2013,04,16,13,51,12.90
2013,04,16,13,52,12.80
2013,04,16,13,53,12.70
2013,04,16,13,54,12.60
2013,04,16,13,55,12.60
2013,04,16,13,56,12.80
2013,04,16,13,57,12.80
2013,04,16,13,58,12.90
2013,04,16,13,59,12.90
2013,04,16,14,00,13.00
2013,04,16,14,01,13.00
2013,04,16,14,02,12.90
2013,04,16,14,03,13.00
2013,04,16,14,04,13.00
2013,04,16,14,05,13.10
2013,04,16,14,06,13.20
2013,04,16,14,07,13.20
2013,04,16,14,08,13.10
2013,04,16,14,09,12.90
2013,04,16,14,10,12.80
2013,04,16,14,11,12.80
2013,04,16,14,12,12.70
2013,04,16,14,13,12.50
2013,04,16,14,14,12.50
2013,04,16,14,15,12.60
2013,04,16,14,16,12.60
2013,04,16,14,17,12.60
2013,04,16,14,18,12.70
2013,04,16,14,19,12.80
2013,04,16,14,20,12.70
2013,04,16,14,21,12.60
2013,04,16,14,22,12.60
2013,04,16,14,23,12.80
2013,04,16,14,24,12.80
2013,04,16,14,25,12.80
2013,04,16,14,26,12.80
2013,04,16,14,27,12.80
2013,04,16,14,28,12.90
2013,04,16,14,29,13.00
2013,04,16,14,30,13.10
2013,04,16,14,31,13.00
2013,04,16,14,32,13.00
2013,04,16,14,33,12.90
2013,04,16,14,34,12.90
2013,04,16,14,35,13.00
2013,04,16,14,36,13.00
2013,04,16,14,37,12.90
2013,04,16,14,38,13.00
2013,04,16,14,39,13.10
2013,04,16,14,40,13.10
2013,04,16,14,41,13.10
2013,04,16,14,42,13.10
2013,04,16,14,43,13.00
2013,04,16,14,44,12.90
2013,04,16,14,45,12.80
2013,04,16,14,46,12.80
2013,04,16,14,47,12.80
2013,04,16,14,48,12.80
2013,04,16,14,49,12.80
2013,04,16,14,50,12.80
2013,04,16,14,51,12.80
2013,04,16,14,52,12.90
2013,04,16,14,53,12.90
2013,04,16,14,54,12.90
2013,04,16,14,55,12.80
2013,04,16,14,56,12.70
2013,04,16,14,57,12.70
2013,04,16,14,58,12.70
2013,04,16,14,59,12.80
2013,04,16,15,00,12.80
2013,04,16,15,01,12.80
2013,04,16,15,02,12.80
2013,04,16,15,03,12.80
2013,04,16,15,04,12.80
2013,04,16,15,05,12.80
2013,04,16,15,06,12.80
2013,04,16,15,07,12.80
2013,04,16,15,08,12.80
2013,04,16,15,09,12.80
2013,04,16,15,10,12.80
2013,04,16,15,11,12.90
2013,04,16,15,12,13.00
2013,04,16,15,13,13.10
2013,04,16,15,14,13.10
2013,04,16,15,15,13.20
2013,04,16,15,16,13.30
2013,04,16,15,17,13.30
2013,04,16,15,18,13.30
2013,04,16,15,19,13.40
2013,04,16,15,20,13.50
2013,04,16,15,21,13.40
2013,04,16,15,22,13.30
2013,04,16,15,23,13.20
2013,04,16,15,24,13.10
2013,04,16,15,25,13.10
2013,04,16,15,26,13.10
2013,04,16,15,27,13.10
2013,04,16,15,28,13.10
2013,04,16,15,29,13.10
2013,04,16,15,30,13.00
2013,04,16,15,31,13.00
2013,04,16,15,32,13.00
2013,04,16,15,33,12.90
2013,04,16,15,34,12.90
2013,04,16,15,35,13.00
2013,04,16,15,36,13.10
2013,04,16,15,37,13.10
2013,04,16,15,38,13.20
2013,04,16,15,39,13.20
2013,04,16,15,40,13.30
2013,04,16,15,41,13.30
2013,04,16,15,42,13.30
2013,04,16,15,43,13.20
2013,04,16,15,44,13.10
2013,04,16,15,45,13.10
2013,04,16,15,46,13.10
2013,04,16,15,47,13.10
2013,04,16,15,48,13.00
2013,04,16,15,49,12.90
2013,04,16,15,50,13.00
2013,04,16,15,51,13.00
2013,04,16,15,52,13.00
2013,04,16,15,53,13.00
2013,04,16,15,54,13.10
2013,04,16,15,55,13.20
2013,04,16,15,56,13.20
2013,04,16,15,57,13.20
2013,04,16,15,58,13.00
2013,04,16,15,59,13.00
2013,04,16,16,00,12.90
2013,04,16,16,01,12.90
2013,04,16,16,02,13.00
2013,04,16,16,03,13.00
2013,04,16,16,04,13.00
2013,04,16,16,05,13.10
2013,04,16,16,06,13.00
2013,04,16,16,07,12.80
2013,04,16,16,08,12.80
2013,04,16,16,09,12.80
2013,04,16,16,10,12.80
2013,04,16,16,11,12.80
2013,04,16,16,12,12.80
2013,04,16,16,13,12.80
2013,04,16,16,14,12.80
2013,04,16,16,15,12.80
2013,04,16,16,16,12.80
2013,04,16,16,17,12.90
2013,04,16,16,18,13.00
2013,04,16,16,19,13.00
2013,04,16,16,20,13.00
2013,04,16,16,21,13.00
2013,04,16,16,22,13.10
2013,04,16,16,23,13.10
2013,04,16,16,24,13.10
2013,04,16,16,25,13.10
2013,04,16,16,26,13.10
2013,04,16,16,27,13.10
2013,04,16,16,28,13.20
2013,04,16,16,29,13.20
2013,04,16,16,30,13.20
2013,04,16,16,31,13.20
2013,04,16,16,32,13.20
2013,04,16,16,33,13.30
2013,04,16,16,34,13.20
2013,04,16,16,35,13.20
2013,04,16,16,36,13.20
2013,04,16,16,37,13.30
2013,04,16,16,38,13.30
2013,04,16,16,39,13.30
2013,04,16,16,40,13.20
2013,04,16,16,41,13.20
2013,04,16,16,42,13.20
2013,04,16,16,43,13.20
2013,04,16,16,44,13.20
2013,04,16,16,45,13.30
2013,04,16,16,46,13.30
2013,04,16,16,47,13.20
2013,04,16,16,48,13.00
2013,04,16,16,49,12.90
2013,04,16,16,50,12.80
2013,04,16,16,51,12.80
2013,04,16,16,52,12.80
2013,04,16,16,53,12.80
2013,04,16,16,54,12.80
2013,04,16,16,55,12.80
2013,04,16,16,56,12.90
2013,04,16,16,57,13.00
2013,04,16,16,58,13.00
2013,04,16,16,59,13.00
2013,04,16,17,00,13.00
2013,04,16,17,01,13.00
2013,04,16,17,02,13.00
2013,04,16,17,03,13.00
2013,04,16,17,04,13.10
2013,04,16,17,05,13.00
2013,04,16,17,06,13.00
2013,04,16,17,07,13.00
2013,04,16,17,08,13.10
2013,04,16,17,09,13.10
2013,04,16,17,10,13.00
2013,04,16,17,11,13.10
2013,04,16,17,12,13.10
2013,04,16,17,13,13.10
2013,04,16,17,14,13.10
2013,04,16,17,15,13.10
2013,04,16,17,16,13.20
2013,04,16,17,17,13.20
2013,04,16,17,18,13.30
2013,04,16,17,19,13.40
2013,04,16,17,20,13.40
2013,04,16,17,21,13.50
2013,04,16,17,22,13.50
2013,04,16,17,23,13.40
2013,04,16,17,24,13.30
2013,04,16,17,25,13.30
2013,04,16,17,26,13.30
2013,04,16,17,27,13.20
2013,04,16,17,28,13.10
2013,04,16,17,29,13.10
2013,04,16,17,30,13.10
2013,04,16,17,31,13.00
2013,04,16,17,32,12.90
2013,04,16,17,33,12.80
2013,04,16,17,34,12.80
2013,04,16,17,35,12.90
2013,04,16,17,36,12.90
2013,04,16,17,37,12.90
2013,04,16,17,38,12.90
2013,04,16,17,39,12.90
2013,04,16,17,40,13.00
2013,04,16,17,41,13.00
2013,04,16,17,42,13.10
2013,04,16,17,43,13.00
2013,04,16,17,44,13.00